#timestamp,LO_Frequency,Hit,StdDev 
1624104015.0,286046998.8,N
1624104015.9,286046998.8,N
1624104035.7,286046998.6,N
1624104055.6,286046998.3,N
1624104075.4,286047000.8,N
1624104095.3,286047000.8,N
1624104115.1,286046999.3,N
1624104116.0,286046999.3,N
1624104135.8,286046999.4,N
1624104155.7,286046996.9,N
1624104175.5,286046996.5,N
1624104195.3,286046999.4,N
1624104215.2,286046999.3,N
1624104235.0,286046996.5,N
1624104235.9,286046996.5,N
1624104255.8,286046999.2,N
1624104275.6,286046999.5,N
1624104295.4,286046996.6,N
1624104315.3,286046997.2,N
1624104365.1,286046998.0,E
1624104375.1,286046999.6,N
1624104376.0,286046999.6,P
1624104395.8,286047000.5,P
1624104415.6,286046998.3,Y
1624104435.5,286047001.1,P
1624104455.3,286046998.8,N
1624104475.2,286046999.3,N
1624104495.9,286046997.8,N
1624104515.7,286046997.1,N
1624104535.6,286046997.8,N
1624104555.4,286046997.4,N
1624104575.2,286046997.5,N
1624104595.1,286046997.6,N
1624104596.0,286046997.6,N
1624104615.8,286046997.8,N
1624104635.7,286046997.8,N
1624104655.5,286046997.6,N
1624104675.3,286046997.9,N
1624104695.2,286046994.9,Y
1624104715.0,286046999.6,P
1624104715.9,286046999.6,N
1624104735.7,286046996.8,P
1624104755.6,286046996.7,N
1624104775.4,286046997.0,N
1624104795.3,286046995.1,Y
1624104815.1,286046998.6,P
1624104835.8,286046998.1,P
1624104855.7,286046998.9,P
1624104875.5,286046999.2,N
1624104895.3,286046999.2,N
1624104915.2,286046999.3,N
1624104935.0,286046998.8,N
1624104935.9,286046998.8,N
1624104955.8,286046999.4,N
1624104975.6,286046999.2,N
1624104995.4,286046999.1,N
1624105015.3,286046999.6,N
1624105035.1,286046996.6,Y
1624105055.9,286046999.1,P
1624105075.7,286046996.8,P
1624105095.5,286046996.6,P
1624105115.4,286046999.6,N
1624105135.2,286046999.6,N
1624105155.0,286046998.8,N
1624105155.9,286046998.8,N
1624105175.8,286046998.2,N
1624105195.6,286046999.3,N
1624105215.5,286046999.2,N
1624105235.3,286046997.0,Y
1624105255.1,286047000.6,P
1624105275.9,286046998.5,N
1624105295.7,286046998.9,N
1624105315.5,286046996.7,Y
1624105335.4,286046999.4,P
1624105355.2,286046998.9,P
1624105375.1,286047000.6,N
1624105376.0,286047000.6,N
1624105395.8,286047001.0,N
1624105415.6,286047000.6,N
1624105435.5,286047000.7,N
1624105455.3,286046998.3,N
1624105475.1,286046998.7,N
1624105495.9,286046998.4,N
1624105515.7,286046998.3,N
1624105535.6,286046998.6,N
1624105555.4,286046996.9,Y
1624105575.2,286046998.3,P
1624105595.1,286046999.3,N
1624105596.0,286046999.3,N
1624105615.8,286046999.0,N
1624105635.7,286046998.7,Y
1624105655.5,286046999.9,P
1624105675.3,286047002.8,P
1624105695.2,286046999.9,N
1624105715.0,286047002.0,N
1624105715.9,286047002.0,N
1624105735.7,286047001.8,N
1624105755.6,286047001.5,N
1624105775.4,286047001.7,N
1624105795.3,286047001.9,N
1624105815.1,286047004.1,Y
1624105835.8,286047004.4,P
1624105855.7,286047002.2,N
1624105875.5,286047002.6,N
1624105895.4,286047002.5,N
1624105915.2,286046999.8,N
1624105935.0,286046999.7,N
1624105935.9,286046999.7,N
1624105955.8,286047000.2,N
1624105975.6,286047002.5,N
1624105995.4,286047000.1,N
1624106015.3,286047002.2,N
1624106035.1,286047002.8,N
1624106055.9,286047002.6,N
1624106075.7,286047002.6,N
1624106095.5,286047002.2,N
1624106115.4,286047002.3,N
1624106135.2,286047002.2,N
1624106155.0,286047002.2,N
1624106155.9,286047002.2,N
1624106175.8,286047001.9,N
1624106195.6,286047004.0,Y
1624106215.5,286047000.7,P
1624106235.3,286047001.1,N
1624106255.1,286046998.8,N
1624106275.9,286046998.8,N
1624106295.7,286046998.9,N
1624106315.5,286046998.1,N
1624106335.4,286047000.7,N
1624106355.2,286046999.9,N
1624106375.1,286047000.9,N
1624106376.0,286047000.9,N
1624106395.8,286047000.2,N
1624106415.6,286047002.7,N
1624106435.5,286047002.7,N
1624106455.3,286047001.4,N
1624106475.1,286047001.3,N
1624106495.9,286047001.3,N
1624106515.7,286047004.4,Y
1624106535.6,286047002.0,P
1624106555.4,286047004.2,P
1624106575.3,286047003.6,N
1624106595.1,286047003.2,N
1624106596.0,286047003.2,N
1624106615.8,286047003.0,N
1624106635.7,286047003.8,Y
1624106655.5,286046998.1,P
1624106675.4,286047000.2,N
1624106695.2,286047000.4,N
1624106715.0,286046999.9,N
1624106715.9,286046999.9,N
1624106735.8,286047002.6,N
1624106755.6,286047002.1,N
1624106775.4,286047002.1,N
1624106795.3,286047002.5,N
1624106815.1,286047001.6,N
1624106835.9,286047002.3,N
1624106855.7,286047001.4,N
1624106875.5,286047001.5,N
1624106895.4,286047001.5,N
1624106915.2,286046999.7,N
1624106935.0,286047002.5,N
1624106935.9,286047002.5,N
1624106955.8,286047002.2,N
1624106975.6,286047001.9,N
1624106995.5,286047001.9,N
1624107015.3,286047004.4,Y
1624107035.1,286046999.9,P
1624107055.9,286046999.8,N
1624107075.7,286047002.7,P
1624107095.5,286047002.7,N
1624107115.4,286047002.4,N
1624107135.2,286046999.7,N
1624107155.1,286047002.7,N
1624107156.0,286047002.7,N
1624107175.8,286047002.8,N
1624107195.6,286047002.4,N
1624107215.5,286047002.7,N
1624107235.3,286047002.8,N
1624107255.1,286047002.8,N
1624107275.9,286047002.8,N
1624107295.7,286047002.2,N
1624107315.6,286047001.9,N
1624107335.4,286047002.8,N
1624107355.2,286047002.2,N
1624107375.1,286047000.1,N
1624107376.0,286047000.1,N
1624107395.8,286046999.8,N
1624107415.6,286047001.7,N
1624107435.5,286047001.8,N
1624107455.3,286047002.1,N
1624107475.2,286047001.9,N
1624107495.9,286047001.9,N
1624107515.7,286047002.1,N
1624107535.6,286046999.7,N
1624107555.4,286047000.1,N
1624107575.2,286047000.0,N
1624107595.1,286047002.8,N
1624107596.0,286047002.8,N
